CAPE
0 2 0 0 0 0 0 12 12 1 0 0 363 569 507 466 271 145 302 429 210 273 385 353 424 535 868 949 947 666 1031 1160 1396 1588 1296 1172 853 866 833 859 1086 888 909 867
0 1 0 0 0 1 17 0 0 0 0 0 23 90 503 461 341 515 0 46 49 42 628 686 568 560 840 812 1330 1125 958 1136 1208 1122 1111 951 965 278 0 0 228 1016 810 864
0 0 2 0 0 0 0 2 12 5 0 0 0 33 415 450 441 145 24 11 29 109 805 1063 745 929 845 842 1394 1524 1954 1495 1724 1579 1595 1455 642 931 615 364 402 1014 1119 1184
0 0 9 8 1 0 0 3 0 5 0 0 0 5 259 262 292 131 85 38 17 226 290 532 884 934 1117 1484 1528 1707 2346 2166 1938 2257 1799 1256 969 781 752 776 533 572 1057 645
0 1 2 2 1 0 0 4 0 0 0 0 0 0 250 298 164 372 108 191 353 734 200 254 622 782 1369 1560 2026 2138 2667 2646 2394 2444 2259 1690 1328 1001 1068 1121 87 901 1295 553
0 0 0 0 0 0 0 0 0 0 0 0 0 16 5 74 135 221 107 143 157 104 90 64 121 855 1708 1714 1998 2444 2686 2978 2804 2594 2506 2252 1667 1652 1144 16 3 185 1195 344
0 0 0 0 0 0 0 0 0 0 0 0 59 164 167 199 34 182 102 104 93 20 10 184 45 1042 1795 1918 2128 2534 2959 3149 3015 2916 2972 2548 2362 2163 1692 1209 903 1386 714 486
0 0 0 0 0 0 0 0 0 0 28 3 214 326 130 115 210 143 129 10 97 0 0 43 637 1281 1649 1974 2158 2931 3264 3515 3579 3397 3370 3265 2998 2928 2819 2312 2004 1515 1527 634
0 0 0 0 0 0 0 0 0 0 0 24 71 48 64 125 106 529 722 639 0 126 174 241 161 7 1620 2090 2275 3154 3327 3590 3836 3662 3545 3468 3485 3424 3061 3124 2786 2290 1033 1097
0 0 0 0 0 0 0 0 0 0 0 65 279 88 99 87 2 416 585 639 195 0 0 1 0 0 192 1770 2226 3307 3493 3651 3616 3463 3524 3620 3256 3157 2921 2842 2523 2063 1178 1662
0 0 0 3 27 22 11 0 0 0 0 222 293 385 467 325 346 379 260 9 58 0 6 13 86 99 613 2328 2246 3225 3268 3533 3470 3430 3236 3087 3007 2733 2778 2656 2376 1372 1509 2176
0 93 16 34 1 4 0 9 19 32 27 60 101 329 123 54 76 272 265 26 99 6 146 1161 1770 2606 2680 2884 2675 2632 2435 2409 2706 2944 2767 2490 2332 1374 2012 1945 1523 1720 1633 564
7 80 10 7 10 41 9 6 7 7 0 115 290 404 142 48 57 64 0 0 0 1308 1457 1492 1020 1382 1457 1533 1552 2048 2349 2343 2745 2480 2356 2192 1549 1183 456 487 514 602 909 866
11 55 109 48 13 7 16 7 9 0 2 4 411 184 2 0 82 41 21 255 451 1065 877 590 600 758 915 885 590 439 556 446 215 182 210 275 388 595 474 443 453 507 592 607
55 84 34 32 38 8 1 4 35 31 2 0 9 2 0 9 0 7 247 433 723 530 328 434 606 671 596 450 327 139 160 133 140 113 65 385 487 529 534 410 465 623 442 397
4 129 145 26 131 34 0 0 12 17 25 0 297 470 1 0 0 48 46 71 1196 956 689 567 577 572 489 365 458 301 290 214 121 94 160 168 65 85 105 137 107 114 138 209
44 117 146 134 96 51 30 9 10 53 3 0 206 497 480 69 309 248 0 0 769 774 778 612 643 685 593 619 379 56 82 113 30 48 76 72 68 101 148 257 326 341 295 253
10 88 86 81 34 40 25 7 22 12 0 0 352 537 503 719 417 883 55 0 544 561 559 461 409 599 250 85 0 0 0 0 48 97 322 316 300 234 276 322 195 42 62 50
0 0 20 0 0 0 0 0 0 0 10 2 213 439 634 887 648 612 535 655 573 467 208 175 27 2 0 4 5 34 70 61 172 324 347 398 303 77 19 22 30 46 49 29
0 0 0 0 0 0 0 0 0 0 0 0 295 149 38 358 400 476 84 701 437 163 10 0 0 0 0 0 0 0 0 0 0 0 0 5 41 80 38 37 46 25 21 27
24 0 0 0 12 3 80 0 0 27 205 204 221 265 252 271 85 34 0 0 0 0 0 0 0 0 0 0 0 0 0 0 0 0 0 0 0 5 11 7 6 5 3 6
2 30 0 1 129 294 160 152 367 292 241 55 61 236 141 39 0 0 0 0 0 0 0 0 0 0 0 0 0 0 0 0 0 0 0 0 0 0 5 0 0 0 10 13
28 42 13 1 592 195 84 0 151 62 16 9 0 0 0 0 0 0 0 0 0 0 0 0 0 0 0 0 0 0 0 0 0 0 2 2 8 1 0 0 0 0 0 1
6 115 6 8 209 44 0 25 22 0 0 0 0 0 0 0 0 0 0 0 0 0 0 0 0 0 0 0 0 0 0 1 0 0 0 0 0 1 0 0 0 1 5 23
151 110 11 2 144 20 124 10 0 0 0 0 0 0 0 0 0 0 0 0 0 0 0 0 0 0 0 0 0 0 0 0 0 1 0 0 1 1 0 1 3 1 3 8
24 46 1 145 559 373 84 0 0 0 0 0 0 0 0 0 0 0 0 0 0 0 0 0 0 0 0 2 0 0 0 1 2 7 7 5 6 5 0 3 3 6 16 2
CIN
-0 -32 -0 -0 -0 -0 -0 -10 -5 -18 -0 -0 -31 -45 -52 -38 -49 -48 -137 -70 -59 -76 -82 -117 -94 -83 -88 -107 -115 -154 -98 -100 -92 -66 -65 -62 -99 -85 -62 -71 -50 -51 -69 -58
-0 -20 -0 -0 -0 -15 -13 -0 -2 -0 -0 -0 -103 -53 -51 -41 -42 -154 -0 -171 -252 -301 -75 -82 -102 -129 -110 -99 -90 -110 -116 -130 -94 -108 -79 -77 -83 -201 -0 -0 -251 -60 -47 -36
-0 -0 -3 -1 -19 -0 -0 -15 -7 -12 -0 -0 -0 -74 -38 -46 -46 -279 -363 -71 -219 -206 -75 -80 -120 -130 -107 -107 -91 -79 -75 -88 -48 -42 -44 -59 -208 -139 -165 -218 -222 -111 -59 -38
-0 -0 -7 -8 -15 -0 -0 -20 -2 -13 -0 -0 -0 -25 -81 -61 -66 -305 -361 -247 -213 -231 -208 -172 -106 -106 -110 -110 -92 -105 -75 -59 -51 -38 -40 -52 -82 -123 -172 -162 -216 -157 -84 -104
-0 -12 -19 -17 -4 -0 -0 -18 -0 -0 -0 -0 -0 -0 -53 -95 -78 -254 -338 -416 -394 -114 -283 -238 -96 -113 -96 -103 -102 -117 -81 -72 -56 -45 -24 -51 -72 -101 -132 -132 -317 -167 -95 -175
-0 -0 -0 -0 -0 -0 -0 -0 -0 -0 -0 -0 -0 -8 -29 -92 -80 -220 -303 -440 -472 -315 -327 -284 -391 -103 -104 -90 -113 -118 -104 -73 -59 -60 -42 -38 -67 -56 -123 -103 -155 -434 -76 -128
-0 -0 -0 -0 -0 -0 -0 -0 -0 -0 -0 -0 -63 -97 -221 -313 -409 -231 -280 -420 -464 -295 -575 -541 -343 -90 -89 -100 -137 -124 -106 -71 -54 -52 -40 -46 -52 -54 -82 -144 -197 -65 -143 -148
-0 -0 -0 -0 -0 -0 -0 -0 -0 -0 -25 -12 -217 -148 -297 -601 -415 -410 -414 -466 -221 -0 -0 -181 -195 -70 -85 -120 -150 -100 -100 -72 -51 -27 -19 -22 -27 -32 -30 -34 -45 -80 -74 -214
-0 -0 -0 -0 -0 -0 -0 -0 -0 -0 -0 -9 -310 -462 -451 -476 -318 -329 -327 -314 -35 -204 -228 -191 -231 -271 -78 -102 -132 -125 -114 -75 -45 -35 -19 -13 -15 -16 -12 -9 -23 -37 -139 -154
-0 -6 -0 -0 -0 -0 -0 -0 -0 -0 -0 -44 -129 -328 -305 -357 -122 -289 -273 -260 -284 -0 -0 -193 -0 -264 -720 -90 -109 -113 -103 -82 -68 -54 -39 -23 -18 -19 -18 -15 -20 -34 -86 -26
-0 -0 -0 -28 -38 -73 -75 -0 -0 -0 -0 -20 -11 -57 -294 -339 -408 -263 -372 -92 -448 -0 -318 -630 -695 -612 -247 -82 -84 -92 -80 -56 -59 -46 -34 -34 -27 -32 -24 -22 -25 -46 -54 -19
-0 -78 -92 -77 -47 -125 -1 -139 -107 -48 -39 -36 -65 -229 -346 -452 -512 -343 -356 -533 -546 -48 -74 -242 -126 -78 -134 -121 -140 -129 -144 -115 -93 -69 -55 -54 -35 -65 -32 -31 -36 -36 -34 -130
-8 -81 -173 -70 -86 -113 -227 -194 -176 -67 -0 -40 -36 -172 -430 -570 -368 -471 -0 -0 -0 -30 -203 -204 -301 -319 -299 -311 -248 -149 -94 -79 -86 -47 -37 -39 -54 -88 -200 -177 -151 -116 -69 -56
-6 -74 -79 -202 -215 -125 -193 -164 -236 -39 -20 -30 -165 -321 -260 -72 -355 -471 -270 -287 -79 -244 -364 -478 -488 -382 -329 -294 -343 -399 -287 -348 -352 -323 -307 -261 -229 -181 -184 -196 -163 -126 -103 -69
-70 -92 -110 -168 -176 -246 -178 -176 -216 -212 -112 -0 -19 -65 -0 -92 -41 -89 -476 -260 -152 -162 -318 -367 -361 -322 -294 -291 -298 -363 -312 -337 -320 -301 -289 -169 -150 -137 -138 -154 -147 -110 -121 -105
-31 -90 -105 -172 -188 -216 -0 -0 -158 -185 -130 -0 -61 -67 -6 -2 -0 -386 -364 -321 -150 -79 -183 -256 -251 -239 -223 -230 -188 -213 -208 -238 -256 -217 -179 -202 -265 -234 -217 -198 -205 -194 -158 -106
-55 -84 -44 -64 -172 -175 -157 -121 -150 -148 -212 -0 -57 -66 -158 -384 -347 -408 -0 -0 -69 -55 -42 -98 -104 -141 -119 -101 -192 -462 -348 -265 -312 -258 -215 -206 -212 -185 -151 -111 -77 -52 -47 -53
-14 -41 -35 -35 -146 -87 -47 -93 -132 -213 -0 -0 -84 -70 -55 -149 -288 -176 -192 -0 -82 -38 -75 -132 -69 -69 -208 -384 -61 -0 -0 -0 -165 -124 -74 -67 -60 -55 -42 -30 -42 -50 -102 -71
-0 -10 -101 -1 -0 -0 -0 -0 -0 -0 -143 -3 -77 -50 -68 -111 -108 -116 -190 -109 -78 -117 -165 -131 -125 -173 -0 -100 -212 -209 -142 -126 -89 -50 -40 -35 -42 -131 -66 -44 -42 -38 -32 -31
-0 -0 -0 -0 -0 -0 -0 -0 -0 -0 -24 -0 -78 -108 -162 -115 -126 -83 -114 -29 -73 -92 -154 -0 -0 -0 -0 -0 -0 -0 -0 -0 -0 -0 -0 -88 -132 -95 -87 -32 -34 -40 -43 -29
-46 -0 -0 -6 -60 -34 -132 -0 -0 -14 -58 -94 -131 -155 -178 -150 -218 -222 -0 -0 -0 -0 -0 -0 -0 -0 -0 -0 -0 -0 -0 -0 -0 -0 -0 -0 -0 -19 -42 -54 -34 -44 -14 -26
-37 -139 -0 -6 -6 -24 -143 -102 -68 -100 -143 -174 -149 -170 -179 -247 -0 -0 -0 -0 -0 -0 -0 -0 -0 -0 -0 -0 -0 -0 -0 -0 -0 -0 -0 -0 -0 -1 -20 -0 -0 -0 -19 -20
-69 -88 -115 -9 -75 -128 -140 -27 -112 -187 -298 -268 -0 -0 -0 -0 -0 -0 -0 -0 -0 -0 -0 -0 -0 -0 -0 -0 -0 -0 -0 -0 -0 -0 -0 -2 -4 -10 -0 -0 -0 -0 -0 -1
-96 -93 -133 -124 -130 -161 -0 -220 -203 -0 -0 -0 -0 -0 -0 -0 -0 -0 -0 -0 -0 -0 -0 -0 -0 -0 -0 -0 -0 -0 -0 -16 -0 -0 -0 -0 -0 -0 -0 -0 -0 -0 -0 -7
-80 -68 -52 -6 -137 -207 -125 -258 -0 -0 -0 -0 -0 -0 -0 -0 -0 -0 -0 -0 -0 -0 -0 -0 -0 -0 -0 -0 -0 -0 -1 -2 -5 -2 -2 -1 -0 -2 -3 -4 -4 -2 -0 -0
-24 -43 -23 -13 -107 -78 -159 -0 -0 -0 -0 -0 -0 -0 -0 -0 -0 -0 -0 -0 -0 -0 -0 -0 -0 -0 -0 -6 -3 -0 -1 -1 -0 -3 -2 -1 -1 -0 -1 -2 -0 -2 -1 -6
Wind_Speed
9 3 5 7 10 7 14 4 11 11 7 6 14 17 15 12 12 13 8 8 3 17 16 16 15 15 16 15 13 13 11 9 8 5 4 2 4 3 3 4 5 7 6 6
7 8 7 16 17 8 6 7 6 10 9 5 11 9 17 13 15 18 16 11 10 8 15 15 16 15 18 15 15 14 14 11 9 7 5 4 3 1 0 2 6 7 6 4
8 11 9 12 10 6 6 7 2 9 8 7 3 5 13 11 10 20 13 11 10 5 9 14 16 16 17 15 15 14 14 16 12 9 4 4 4 1 2 2 4 6 7 5
9 12 8 12 15 8 8 3 7 5 3 4 6 4 7 13 12 19 14 14 12 9 3 7 16 17 19 16 15 13 12 12 8 8 6 7 6 4 5 4 3 6 7 7
12 10 11 12 10 7 7 1 6 5 3 3 9 4 9 11 8 18 18 12 8 6 6 9 11 13 16 16 15 14 12 12 9 8 8 6 4 4 2 3 1 6 4 1
10 9 5 8 7 8 4 4 4 4 1 5 10 4 4 11 9 14 17 17 16 8 8 11 14 11 17 16 14 14 13 12 10 11 9 8 8 6 4 3 2 4 2 9
10 10 7 5 3 9 5 3 4 4 2 9 5 9 2 8 13 12 11 10 9 16 6 25 18 14 18 17 15 14 13 11 10 11 8 8 7 6 6 5 4 3 4 5
7 8 9 6 11 9 8 9 7 5 4 5 11 3 4 5 6 3 14 13 16 26 15 14 20 10 18 18 17 16 13 10 10 8 8 8 7 4 4 5 4 2 2 7
3 8 7 7 6 2 6 4 12 6 5 3 4 2 7 6 6 9 9 12 11 16 17 16 23 8 8 15 16 16 14 11 9 10 7 7 7 7 5 4 4 2 4 7
9 1 7 11 6 8 5 6 7 5 3 1 1 3 5 7 7 8 5 8 5 4 17 23 15 13 9 12 12 16 14 14 12 10 8 6 7 6 5 3 4 4 3 3
4 2 6 4 8 5 7 6 5 2 3 4 2 3 4 4 7 8 7 16 9 3 10 5 7 7 14 5 8 15 12 9 6 6 6 7 6 5 4 4 5 5 3 4
4 6 6 5 5 7 8 5 4 4 10 4 7 5 6 9 0 4 11 14 15 21 15 17 14 10 13 13 13 10 11 6 7 6 7 7 6 4 3 2 2 2 4 3
5 3 4 11 8 6 6 5 13 8 2 2 5 5 4 5 1 12 16 26 24 14 19 17 16 12 12 11 7 9 6 5 5 6 4 5 4 6 7 7 6 6 5 4
6 6 7 7 9 3 7 8 10 6 4 3 4 6 6 7 7 12 17 11 24 6 15 15 12 9 8 7 6 6 7 6 9 7 6 6 6 6 5 5 5 4 3 3
8 5 8 6 7 4 3 3 12 16 13 4 8 10 15 12 9 17 21 16 17 8 13 13 11 8 7 6 5 7 6 8 7 7 6 5 5 5 5 4 4 3 4 4
2 7 4 4 2 8 7 6 9 15 17 4 9 7 13 13 6 4 11 9 10 13 10 10 8 8 8 7 5 7 6 5 5 3 2 2 2 2 2 3 4 4 5 5
3 7 5 5 3 7 7 14 2 9 13 7 8 5 14 16 13 15 13 8 11 13 10 13 12 11 8 8 8 5 4 4 3 4 4 4 4 4 5 5 5 5 6 5
12 7 4 5 8 3 11 16 14 9 6 5 12 11 11 15 18 15 11 16 15 11 7 4 5 3 6 7 7 7 6 4 4 5 5 5 5 5 5 4 4 4 4 5
5 4 4 5 1 6 9 9 4 5 6 8 10 10 17 18 20 7 10 5 8 7 5 2 3 4 7 7 6 5 3 1 2 3 2 2 2 2 2 4 5 4 4 5
6 6 6 4 2 2 8 4 8 8 5 6 12 10 10 15 11 2 6 8 8 8 8 7 7 10 14 12 10 10 9 11 9 7 7 7 6 5 5 5 6 4 4 6
3 3 3 2 0 3 9 8 5 5 3 14 14 14 15 12 8 8 8 9 8 10 11 11 15 14 12 12 11 11 11 11 11 9 7 7 7 7 6 5 4 4 6 8
4 4 2 1 0 1 9 9 6 4 8 14 13 10 12 10 12 11 11 11 12 14 15 13 11 10 11 11 10 8 9 8 9 10 9 6 6 6 6 7 5 6 6 8
2 5 5 7 6 4 4 7 8 11 12 9 13 11 12 13 11 10 9 10 13 12 11 10 10 9 9 8 7 6 6 6 8 9 8 9 7 6 6 6 7 7 7 5
4 7 4 7 3 6 8 11 10 12 14 13 12 13 12 10 10 10 10 9 10 11 9 8 9 8 8 8 8 6 7 7 8 9 9 10 11 10 6 7 8 9 9 8
4 3 4 3 5 8 8 11 11 14 13 12 12 12 10 10 10 8 8 9 8 7 8 7 7 6 6 7 7 7 6 6 7 8 9 9 8 10 9 8 7 9 10 11
2 2 2 4 7 7 7 9 13 13 11 9 11 10 10 10 8 9 8 6 7 7 7 6 7 6 6 6 6 7 7 8 10 9 9 8 9 10 10 9 11 9 13 18
Wind_Direction
256 252 286 325 300 138 238 218 131 186 197 181 141 167 172 183 171 137 74 70 302 165 162 163 166 162 164 164 170 182 169 167 151 158 156 158 208 203 226 255 232 234 230 212
279 227 128 284 295 266 231 276 203 164 157 170 173 171 172 189 177 143 125 163 264 300 167 174 175 170 165 171 171 172 183 167 173 171 178 176 155 122 121 251 297 267 259 234
224 240 229 249 275 267 265 252 206 160 182 191 171 196 170 195 125 137 158 164 198 255 180 184 167 173 174 175 168 170 160 174 178 171 150 115 79 353 298 232 256 271 218 203
242 246 225 210 243 215 252 14 322 219 85 212 174 230 207 181 153 157 161 168 182 168 7 259 187 178 180 172 169 165 155 165 169 163 154 167 167 175 214 207 209 242 217 217
249 238 224 254 247 236 238 266 255 266 217 224 279 133 225 173 178 165 158 179 98 144 197 229 204 180 168 165 166 168 160 162 169 170 173 178 168 190 198 91 11 281 228 139
251 276 205 219 219 266 237 119 311 294 203 337 260 208 227 168 177 145 168 154 135 253 331 298 285 178 167 170 164 164 163 168 172 177 180 187 174 185 163 150 247 286 273 86
274 271 275 208 270 263 256 102 312 343 354 225 175 61 132 21 3 20 153 172 130 147 103 275 262 186 162 171 162 164 167 172 175 170 172 186 190 190 178 184 199 197 132 148
196 271 212 196 203 208 188 175 173 233 171 249 46 20 262 313 295 156 132 174 217 187 186 307 228 169 164 165 159 164 168 163 164 172 175 177 189 180 191 196 221 206 145 163
238 256 189 209 228 149 275 211 225 253 278 90 179 205 297 308 344 2 349 343 69 138 141 88 315 300 235 158 161 162 164 163 166 175 179 186 175 170 178 158 155 161 105 140
251 25 302 220 185 251 196 246 6 346 329 253 0 174 222 247 196 223 278 275 306 234 158 160 176 246 283 161 152 160 162 168 177 177 173 166 163 169 169 166 190 147 163 165
244 134 280 74 48 33 347 302 273 206 160 98 206 280 320 215 227 239 339 312 334 51 265 134 142 220 260 140 151 165 154 157 134 127 127 144 138 169 167 177 167 166 209 188
218 93 86 285 312 85 80 5 345 89 283 179 157 280 286 239 206 355 12 321 328 313 225 121 148 139 71 75 85 98 86 101 106 111 119 131 135 124 153 180 104 201 153 151
353 43 57 348 342 15 65 331 318 342 13 354 87 246 246 317 293 69 24 350 328 312 66 74 63 51 54 53 43 66 96 90 102 80 105 113 110 62 90 79 70 59 49 30
71 47 126 169 223 129 288 316 317 314 40 330 157 182 243 213 248 107 91 108 271 91 86 85 69 56 54 59 54 58 63 83 66 57 57 63 60 60 64 65 57 48 36 9
116 126 132 198 230 186 258 299 320 319 308 49 164 180 194 191 191 158 165 165 285 81 89 94 109 113 91 73 73 81 67 67 73 67 50 39 39 29 21 1 340 332 333 314
256 176 120 226 24 314 326 347 300 302 305 45 81 68 177 163 99 109 165 174 73 288 135 119 126 136 145 147 128 116 117 107 95 86 57 67 49 2 321 313 299 297 284 281
291 148 150 185 39 327 312 238 107 294 294 85 91 116 104 155 172 187 202 165 196 238 156 156 173 170 173 165 161 125 138 130 148 174 211 217 232 244 250 256 271 284 291 296
261 149 139 147 142 180 236 194 204 217 27 55 97 92 75 126 197 177 201 185 168 222 105 71 139 155 121 102 105 110 136 169 195 222 222 229 238 246 261 287 314 322 318 308
82 81 54 103 356 316 351 23 77 115 32 91 113 103 105 91 85 47 121 139 126 112 118 139 92 99 83 79 81 95 94 75 20 345 323 325 62 34 327 299 287 279 284 280
79 103 105 50 58 279 272 127 98 91 20 35 93 105 105 97 87 99 34 81 62 63 72 79 66 52 46 23 36 44 33 47 39 18 2 359 357 340 308 284 277 262 263 262
80 53 96 38 157 78 327 28 37 68 214 43 74 87 87 100 135 142 95 69 71 63 52 52 59 71 51 36 34 39 40 25 2 347 348 338 333 322 314 317 315 288 290 290
133 111 210 278 264 130 318 33 84 194 56 82 63 72 92 88 78 74 66 61 58 57 49 48 56 56 53 41 37 28 34 14 2 353 340 335 330 328 319 308 301 298 286 281
67 157 156 130 178 179 58 95 69 82 81 67 76 55 70 68 65 62 57 52 57 57 56 46 43 43 43 40 39 25 356 358 355 346 337 330 319 315 318 312 301 304 301 286
25 12 77 81 175 132 101 64 74 85 87 73 69 71 63 66 60 56 54 50 57 49 46 46 39 34 20 25 26 10 11 9 1 346 334 328 322 322 331 325 307 298 290 288
166 88 122 100 130 98 96 105 95 79 74 77 72 69 58 60 56 58 57 54 53 42 44 46 44 22 28 17 356 3 18 4 338 326 320 315 314 314 308 290 288 290 286 281
135 148 132 212 160 136 143 117 107 94 83 71 83 72 66 73 67 69 79 64 59 53 40 40 37 22 1 5 5 349 347 346 341 333 329 323 319 316 310 306 311 276 262 282